TimeEDT,TemperatureF,Dew PointF,Humidity,Sea Level PressureIn,VisibilityMPH,Wind Direction,Wind SpeedMPH,Gust SpeedMPH,PrecipitationIn,Events,Conditions,WindDirDegrees,DateUTC
12:15 AM,55.4,48.2,77,30.28,10.0,Calm,Calm,-,N/A,,Clear,0,2012-03-15 04:15:00
12:35 AM,53.6,48.2,82,30.28,10.0,Calm,Calm,-,N/A,,Clear,0,2012-03-15 04:35:00
12:55 AM,53.6,48.2,82,30.28,10.0,Calm,Calm,-,N/A,,Clear,0,2012-03-15 04:55:00
1:15 AM,53.6,48.2,82,30.28,10.0,Calm,Calm,-,N/A,,Clear,0,2012-03-15 05:15:00
1:35 AM,53.6,48.2,82,30.28,10.0,Calm,Calm,-,N/A,,Clear,0,2012-03-15 05:35:00
1:55 AM,53.6,48.2,82,30.28,10.0,Calm,Calm,-,N/A,,Clear,0,2012-03-15 05:55:00
2:15 AM,51.8,48.2,88,30.28,10.0,Calm,Calm,-,N/A,,Clear,0,2012-03-15 06:15:00
2:35 AM,51.8,48.2,88,30.28,10.0,Calm,Calm,-,N/A,,Clear,0,2012-03-15 06:35:00
2:55 AM,51.8,48.2,88,30.28,10.0,Calm,Calm,-,N/A,,Clear,0,2012-03-15 06:55:00
3:15 AM,50.0,46.4,87,30.28,10.0,Calm,Calm,-,N/A,,Clear,0,2012-03-15 07:15:00
3:35 AM,48.2,48.2,100,30.28,10.0,Calm,Calm,-,N/A,,Clear,0,2012-03-15 07:35:00
3:55 AM,48.2,46.4,93,30.27,10.0,Calm,Calm,-,N/A,,Clear,0,2012-03-15 07:55:00
4:15 AM,48.2,46.4,93,30.27,10.0,Calm,Calm,-,N/A,,Clear,0,2012-03-15 08:15:00
4:35 AM,46.4,46.4,100,30.27,10.0,Calm,Calm,-,N/A,,Clear,0,2012-03-15 08:35:00
4:55 AM,46.4,46.4,100,30.27,10.0,Calm,Calm,-,N/A,,Clear,0,2012-03-15 08:55:00
5:15 AM,46.4,46.4,100,30.27,10.0,Calm,Calm,-,N/A,,Clear,0,2012-03-15 09:15:00
5:35 AM,46.4,46.4,100,30.28,10.0,Calm,Calm,-,N/A,,Clear,0,2012-03-15 09:35:00
5:55 AM,46.4,46.4,100,30.28,10.0,Calm,Calm,-,N/A,,Clear,0,2012-03-15 09:55:00
6:15 AM,46.4,46.4,100,30.28,7.0,Calm,Calm,-,N/A,,Clear,0,2012-03-15 10:15:00
6:35 AM,46.4,46.4,100,30.29,7.0,Calm,Calm,-,N/A,,Clear,0,2012-03-15 10:35:00
6:55 AM,44.6,44.6,100,30.30,10.0,Calm,Calm,-,N/A,,Clear,0,2012-03-15 10:55:00
7:15 AM,44.6,44.6,100,30.29,10.0,Calm,Calm,-,N/A,,Clear,0,2012-03-15 11:15:00
7:35 AM,46.4,46.4,100,30.30,10.0,Calm,Calm,-,N/A,,Clear,0,2012-03-15 11:35:00
7:55 AM,46.4,46.4,100,30.31,5.0,Calm,Calm,-,N/A,,Clear,0,2012-03-15 11:55:00
8:15 AM,46.4,46.4,100,30.31,5.0,Calm,Calm,-,N/A,,Clear,0,2012-03-15 12:15:00
8:35 AM,51.8,50.0,94,30.32,10.0,Calm,Calm,-,N/A,,Clear,0,2012-03-15 12:35:00
8:55 AM,51.8,50.0,94,30.31,10.0,Calm,Calm,-,N/A,,Clear,0,2012-03-15 12:55:00
9:15 AM,53.6,51.8,94,30.32,10.0,Calm,Calm,-,N/A,,Clear,0,2012-03-15 13:15:00
9:35 AM,55.4,51.8,88,30.34,10.0,Calm,Calm,-,N/A,,Clear,0,2012-03-15 13:35:00
9:55 AM,55.4,51.8,88,30.33,10.0,Calm,Calm,-,N/A,,Clear,0,2012-03-15 13:55:00
10:15 AM,57.2,51.8,82,30.34,7.0,Calm,Calm,-,N/A,Thunderstorm,Clear,0,2012-03-15 14:15:00
10:35 AM,57.2,51.8,82,30.33,10.0,Calm,Calm,-,N/A,,Clear,0,2012-03-15 14:35:00
10:55 AM,57.2,51.8,82,30.34,10.0,Calm,Calm,-,N/A,,Clear,0,2012-03-15 14:55:00
11:15 AM,57.2,51.8,82,30.35,7.0,Calm,Calm,-,N/A,Thunderstorm,Thunderstorm,0,2012-03-15 15:15:00
11:35 AM,55.4,51.8,88,30.35,10.0,Calm,Calm,-,N/A,Thunderstorm,Clear,0,2012-03-15 15:35:00
11:55 AM,55.4,51.8,88,30.34,10.0,Calm,Calm,-,N/A,,Clear,0,2012-03-15 15:55:00
12:15 PM,55.4,51.8,88,30.36,7.0,West,8.1,16.1,N/A,,Scattered Clouds,280,2012-03-15 16:15:00
12:35 PM,55.4,50.0,82,30.36,10.0,West,5.8,-,N/A,,Light Drizzle,260,2012-03-15 16:35:00
12:55 PM,57.2,51.8,82,30.35,10.0,NW,4.6,-,N/A,Thunderstorm,Scattered Clouds,310,2012-03-15 16:55:00
1:15 PM,60.8,51.8,72,30.36,10.0,NNW,11.5,-,N/A,Thunderstorm,Thunderstorm,340,2012-03-15 17:15:00
1:35 PM,59.0,53.6,82,30.35,10.0,NNW,10.4,-,N/A,Rain-Thunderstorm,Rain,330,2012-03-15 17:35:00
2:15 PM,57.2,53.6,88,30.35,10.0,NNW,11.5,18.4,0.03,Rain,Rain,330,2012-03-15 18:15:00
2:35 PM,57.2,53.6,88,30.33,10.0,WNW,4.6,-,0.08,Rain,Heavy Rain,290,2012-03-15 18:35:00
2:55 PM,57.2,55.4,94,30.28,10.0,SSW,6.9,-,0.10,Rain-Thunderstorm,Light Thunderstorms and Rain,210,2012-03-15 18:55:00
3:15 PM,55.4,55.4,100,30.29,10.0,SSW,6.9,-,N/A,,Scattered Clouds,210,2012-03-15 19:15:00
3:35 PM,57.2,55.4,94,30.29,10.0,Calm,Calm,-,N/A,Rain-Thunderstorm,Light Thunderstorms and Rain,0,2012-03-15 19:35:00
3:55 PM,57.2,57.2,100,30.30,10.0,WNW,5.8,-,N/A,,Scattered Clouds,290,2012-03-15 19:55:00
4:15 PM,57.2,57.2,100,30.30,10.0,West,5.8,-,N/A,Rain,Light Rain,280,2012-03-15 20:15:00
4:35 PM,57.2,57.2,100,30.30,10.0,WNW,5.8,-,N/A,Rain,Rain,290,2012-03-15 20:35:00
4:55 PM,57.2,57.2,100,30.31,10.0,West,8.1,17.3,N/A,Thunderstorm,Mostly Cloudy,260,2012-03-15 20:55:00
5:15 PM,59.0,57.2,94,30.30,7.0,WSW,6.9,-,N/A,Rain-Thunderstorm,Heavy Thunderstorms and Rain,250,2012-03-15 21:15:00
5:35 PM,57.2,57.2,100,30.30,7.0,WSW,9.2,-,0.03,Rain-Thunderstorm,Rain,240,2012-03-15 21:35:00
5:55 PM,57.2,55.4,94,30.30,10.0,SSW,9.2,-,0.04,Rain,Light Rain,210,2012-03-15 21:55:00
6:15 PM,57.2,57.2,100,30.29,10.0,SW,6.9,-,N/A,Rain-Thunderstorm,Light Thunderstorms and Rain,220,2012-03-15 22:15:00
6:35 PM,57.2,57.2,100,30.27,10.0,SSW,9.2,16.1,N/A,Rain,Light Rain,210,2012-03-15 22:35:00
6:55 PM,57.2,57.2,100,30.25,10.0,SSW,8.1,19.6,N/A,Rain,Light Rain,210,2012-03-15 22:55:00
7:15 PM,57.2,57.2,100,30.24,10.0,SW,3.5,-,N/A,,Light Drizzle,230,2012-03-15 23:15:00
7:35 PM,57.2,55.4,94,30.20,10.0,SSW,4.6,-,N/A,,Clear,210,2012-03-15 23:35:00
7:55 PM,55.4,55.4,100,30.21,10.0,WNW,4.6,-,N/A,,Clear,300,2012-03-15 23:55:00
8:15 PM,55.4,55.4,100,30.22,10.0,NW,4.6,-,N/A,,Clear,310,2012-03-16 00:15:00
8:35 PM,55.4,55.4,100,30.23,10.0,NW,5.8,-,N/A,,Clear,320,2012-03-16 00:35:00
8:55 PM,55.4,55.4,100,30.24,10.0,WNW,4.6,-,N/A,,Clear,290,2012-03-16 00:55:00
9:15 PM,55.4,55.4,100,30.25,10.0,WNW,4.6,-,N/A,,Clear,290,2012-03-16 01:15:00
9:35 PM,55.4,55.4,100,30.25,10.0,Calm,Calm,-,N/A,,Clear,0,2012-03-16 01:35:00
9:55 PM,53.6,53.6,100,30.25,10.0,Calm,Calm,-,N/A,,Scattered Clouds,0,2012-03-16 01:55:00
10:15 PM,55.4,55.4,100,30.26,10.0,SW,3.5,-,N/A,,Clear,230,2012-03-16 02:15:00
10:35 PM,55.4,53.6,94,30.26,10.0,Calm,Calm,-,N/A,,Clear,0,2012-03-16 02:35:00
10:55 PM,53.6,53.6,100,30.26,10.0,Calm,Calm,-,N/A,,Clear,0,2012-03-16 02:55:00
11:15 PM,51.8,51.8,100,30.26,7.0,Calm,Calm,-,N/A,,Clear,0,2012-03-16 03:15:00
11:35 PM,50.0,50.0,100,30.26,1.8,Calm,Calm,-,N/A,,Mist,0,2012-03-16 03:35:00
11:55 PM,50.0,50.0,100,30.27,4.0,Calm,Calm,-,N/A,,Clear,0,2012-03-16 03:55:00